Flag for U.S.A. Weather past 2 weeks in Salem, Oregon, U.S.A.

Now
63 °F

Partly sunny.


Feels Like: 63 °F
Forecast: 46 / 64 °F
Wind: 12 mph from Northwest

Location: McNary Field

Current Time: Apr 21, 2015 at 1:03:01 PM

Latest Report: Apr 21, 2015 at 11:56 AM


Visibility: 10 mi

Pressure: 29.98 "Hg

Humidity: 60%

Dew point: 49 °F

Location of SalemLocation

Historic Weather in Salem — Graph

°F

Salem temperature yesterday

Maximum temperature yesterday: 78 °F (at 4:56 PM)
Minimum temperature yesterday: 44 °F (at 5:56 AM)
Average temperature yesterday: 61 °F

Past Weeks' High & Low Weather Summary

 TemperatureHumidityPressure
High78 °F (Apr 20, 4:56 PM)97% (Apr 9, 9:56 AM)30.56 "Hg (Apr 9, 9:56 AM)
Low35 °F (Apr 15, 6:56 AM)23% (Apr 18, 6:56 PM)29.71 "Hg (Apr 7, 3:56 AM)
Average52 °F69%30.09 "Hg
* Reported Apr 6 11:56 AM — Apr 21 11:56 AM, Salem, Weather by CustomWeather, © 2015

Note: Actual official high and low records may vary slightly from our data, if they occured in-between our weather recording intervals... More about our weather records

Advertising

Salem weather history for previous 24 hours

 ConditionsComfort  
Time TempWeatherWind HumidityBarometerVisibility
11:56 AM
Tue, Apr 21
63 °FPartly sunny.12 mph60%29.98 "Hg10 mi
10:56 AM61 °FScattered clouds.6 mph65%29.98 "Hg10 mi
9:56 AM58 °FSunny.9 mph70%29.96 "Hg10 mi
8:56 AM56 °FSunny.No wind70%29.95 "Hg10 mi
7:56 AM50 °FSunny.No wind83%29.94 "Hg10 mi
6:56 AM45 °FClear.5 mph86%29.93 "Hg10 mi
5:56 AM46 °FClear.No wind83%29.90 "Hg10 mi
4:56 AM46 °FClear.No wind83%29.89 "Hg10 mi
3:56 AM47 °FClear.No wind80%29.88 "Hg10 mi
2:56 AM49 °FClear.No wind77%29.86 "Hg10 mi
1:56 AM50 °FClear.3 mph74%29.86 "Hg10 mi
12:56 AM53 °FClear.No wind66%29.86 "Hg10 mi
11:56 PM
Mon, Apr 20
56 °FClear.No wind60%29.85 "Hg10 mi
10:56 PM59 °FClear.No wind54%29.83 "Hg10 mi
9:56 PM63 °FClear.6 mph43%29.82 "Hg10 mi
8:56 PM65 °FSunny.9 mph39%29.81 "Hg10 mi
7:56 PM69 °FSunny.13 mph36%29.79 "Hg10 mi
6:56 PM74 °FSunny.10 mph35%29.78 "Hg10 mi
5:56 PM78 °FSunny.3 mph35%29.78 "Hg10 mi
4:56 PM78 °FSunny.8 mph31%29.80 "Hg10 mi
3:56 PM77 °FSunny.9 mph26%29.81 "Hg10 mi
2:56 PM76 °FSunny.8 mph27%29.83 "Hg10 mi
1:56 PM74 °FSunny.8 mph33%29.85 "Hg10 mi
Weather by CustomWeather, © 2015

See weather overviewHow to use our weather pages